sat.trackr.live / text

‹ back to catalog

STARLINK-31470

NORAD 59569 · 2024-076F

PAYLOAD ACTIVE UNKNOWN

§ Identity

Operator
Country
US
Launch date
2024-04-23
Launch site
AFETR
Launch vehicle
Mass (kg)
RCS (m²)

Purposes: comms

External: N2YO · Heavens-Above · Gunter

§ Orbital elements

Epoch: 2026-05-25T03:16:56.667072Z

Period
94.27 min
Inclination
43.0039°
Eccentricity
0.0002391
Mean motion
15.27576353 rev/d
Perigee alt
481.4 km
Apogee alt
484.7 km
Semi-major
6,861.2 km
B*
5.9444e-5
RAAN
293.8697°
Arg perigee
279.9504°
Mean anomaly
80.1078°
Rev number
11,814

§ Raw data

STARLINK-314701 59569U 24076F   26145.13676698  .00001373  00000+0  59444-4 0  99902 59569  43.0039 293.8697 0002391 279.9504  80.1078 15.27576353118143

JSON: /api/v1/satellites/59569 · /tle

For live sub-satellite position, see the globe view (requires WebGL).

§ Visibility from observer

Set your observer location to see the next 7 days of passes ≥ 10°. The values pass through the URL so the page stays shareable.

No JS? Fill the form by hand. The geolocation button needs JavaScript.